Find Starlink 34564

NORAD ID: 64852 Int'l Des: 2025-152 Owner: SPXS Country: US Constellation: starlink operational
LEOCIRCULARRETROGRADESSO

現在のビュー

3D地球を読み込み中...

About Starlink 34564

Starlink 34564 (NORAD 64852) is a starlink constellation satellite (v2 mini) launched Jul 19, 2025 by SPXS of US. It operates in LEO, CIRCULAR, RETROGRADE, SSO orbit with a mass of 575.00 kg.

次回通過

Passes for default location (London). Set your location on the main map for personalized predictions.

高度履歴

Loading altitude history...

軌道要素

1 64852U 25152L 26263.53757041 .00011068 00000-0 34458-3 0 9994
2 64852 97.2832 114.1540 0002140 86.6499 273.4988 15.33450002 64838
Epoch: Sep 20, 2026 • Age: 22 hours

現在のステータス

高度 477.4 km
遠地点 / 近地点 N/A
速度 7.63 km/s
衛星直下点 79.58°N, 169.69°E
打ち上げ日 Jul 19, 2025
運用期間 1.1 years
タイプ internet

技術仕様

分類 Payload
質量 575.00 kg
乾燥質量 530.00 kg
長さ 0.30 m
スパン 29.00 m
形状 ? Box + pan
製造者 SPXS
バスタイプ Starlink V2MO
フェーズステータス In Orbit
所有者/国 SPXS/US

Most Searched